This is the latest recevied weather packets stored in our database for station/object PY2UEP-1. If no packets are shown the sender has not sent any weather packets the latest 10 day(s).
| Time | Temp. | Humidity | Pressure | Rain* | Wind** | Luminosity | Snow |
|---|---|---|---|---|---|---|---|
| 1788071405 | 23.33° C | 73% | 1014.2 hPa | 0 mm | - | - | - |
| 1788071105 | 23.33° C | 75% | 1014.3 hPa | 0 mm | - | - | - |
| 1788070805 | 23.33° C | 74% | 1014.3 hPa | 0 mm | - | - | - |
| 1788070505 | 23.89° C | 73% | 1014.3 hPa | 0 mm | - | - | - |
| 1788070205 | 23.89° C | 73% | 1014.3 hPa | 0 mm | - | - | - |
| 1788069905 | 23.89° C | 71% | 1014.3 hPa | 0 mm | - | - | - |
| 1788069605 | 23.89° C | 72% | 1014.3 hPa | 0 mm | - | - | - |
| 1788069305 | 23.89° C | 72% | 1014.3 hPa | 0 mm | - | - | - |
| 1788069005 | 23.89° C | 73% | 1014.3 hPa | 0 mm | - | - | - |
| 1788068705 | 23.89° C | 71% | 1014.3 hPa | 0 mm | - | - | - |
| 1788068405 | 24.44° C | 70% | 1014.3 hPa | 0 mm | - | - | - |
| 1788068105 | 24.44° C | 69% | 1014.4 hPa | 0 mm | - | - | - |
| 1788067805 | 23.33° C | 74% | 1014.4 hPa | 0 mm | - | - | - |
| 1788067505 | 23.33° C | 76% | 1014.7 hPa | 0 mm | - | - | - |
| 1788067205 | 23.33° C | 75% | 1014.7 hPa | 0 mm | - | - | - |
| 1788066905 | 23.33° C | 76% | 1014.8 hPa | 0 mm | - | - | - |
| 1788066605 | 23.89° C | 74% | 1014.8 hPa | 0 mm | - | - | - |
| 1788066305 | 24.44° C | 69% | 1014.8 hPa | 0 mm | - | - | - |
| 1788066005 | 24.44° C | 70% | 1014.7 hPa | 0 mm | - | - | - |
| 1788065705 | 24.44° C | 72% | 1014.4 hPa | 0 mm | - | - | - |
| 1788065405 | 24.44° C | 71% | 1014.4 hPa | 0 mm | - | - | - |
| 1788065105 | 24.44° C | 71% | 1014.4 hPa | 0 mm | - | - | - |
| 1788064805 | 24.44° C | 70% | 1014.4 hPa | 0 mm | - | - | - |
| 1788064505 | 24.44° C | 68% | 1014.4 hPa | 0 mm | - | - | - |
| 1788064205 | 24.44° C | 69% | 1014.4 hPa | 0 mm | - | - | - |
* Rain since midnight (hover to see other rain measurements)
** Current wind speed in m/s (hover to see current wind gust speed)